Location: Famechon
(49.7599°N, 2.0615°E)
Time: 09:00:48
(UTC+00:00)

Cosmos 1943 Rocket - Pass Details

Date: 03 February 2023
Orbit: 811 x 844 km, 71.0° (Epoch: 23 March)

Event Time Altitude Azimuth Distance (km) Brightness Sun altitude
Rises 18:51:03 0° 333° (NNW) 3,415 5.7 -19.8°
Reaches altitude 10° 18:54:25 10° 353° (N) 2,477 4.7 -20.3°
Enters shadow 18:57:44 17° 29° (NNE) 2,008 3.9 -20.8°
